Year,Month,Day,Hour,Minute,Value (Times are PST for temperature in C)
2012,10,17,00,00,10.30
2012,10,17,00,01,10.30
2012,10,17,00,02,10.30
2012,10,17,00,03,10.30
2012,10,17,00,04,10.30
2012,10,17,00,05,10.30
2012,10,17,00,06,10.30
2012,10,17,00,07,10.30
2012,10,17,00,08,10.30
2012,10,17,00,09,10.30
2012,10,17,01,35,9.70
2012,10,17,01,36,9.70
2012,10,17,01,37,9.70
2012,10,17,01,38,9.70
2012,10,17,01,39,9.70
2012,10,17,01,40,9.70
2012,10,17,01,41,9.70
2012,10,17,01,42,9.70
2012,10,17,01,43,9.70
2012,10,17,01,44,9.70
2012,10,17,01,45,9.70
2012,10,17,01,46,9.70
2012,10,17,01,47,9.70
2012,10,17,01,48,9.80
2012,10,17,01,49,9.80
2012,10,17,01,50,9.80
2012,10,17,01,51,9.80
2012,10,17,01,52,9.80
2012,10,17,01,53,9.80
2012,10,17,01,54,9.80
2012,10,17,01,55,9.80
2012,10,17,01,56,9.80
2012,10,17,01,57,9.80
2012,10,17,01,58,9.80
2012,10,17,01,59,9.80
2012,10,17,02,00,9.80
2012,10,17,02,01,9.80
2012,10,17,02,02,9.80
2012,10,17,02,03,9.80
2012,10,17,02,04,9.80
2012,10,17,02,05,9.80
2012,10,17,02,06,9.80
2012,10,17,02,07,9.80
2012,10,17,02,08,9.90
2012,10,17,02,09,9.90
2012,10,17,02,10,9.90
2012,10,17,02,11,9.90
2012,10,17,02,12,9.90
2012,10,17,02,13,9.90
2012,10,17,02,14,9.90
2012,10,17,02,15,9.90
2012,10,17,02,16,9.90
2012,10,17,02,17,9.90
2012,10,17,02,18,9.90
2012,10,17,02,19,9.90
2012,10,17,02,20,9.90
2012,10,17,02,21,9.90
2012,10,17,02,22,9.90
2012,10,17,02,23,9.90
2012,10,17,02,24,9.90
2012,10,17,02,25,9.90
2012,10,17,02,26,9.90
2012,10,17,02,27,9.90
2012,10,17,02,28,9.90
2012,10,17,02,29,9.90
2012,10,17,02,30,9.90
2012,10,17,02,31,9.90
2012,10,17,02,32,9.90
2012,10,17,02,33,9.90
2012,10,17,02,34,9.90
2012,10,17,02,35,9.90
2012,10,17,02,36,9.90
2012,10,17,02,37,9.90
2012,10,17,02,38,9.90
2012,10,17,02,39,9.90
2012,10,17,02,40,9.90
2012,10,17,02,41,9.90
2012,10,17,02,42,10.00
2012,10,17,02,43,9.90
2012,10,17,02,44,9.90
2012,10,17,02,45,9.90
2012,10,17,02,46,9.90
2012,10,17,02,47,9.90
2012,10,17,02,48,9.90
2012,10,17,02,49,9.90
2012,10,17,02,50,9.90
2012,10,17,02,51,10.00
2012,10,17,02,52,10.10
2012,10,17,02,53,10.10
2012,10,17,02,54,10.10
2012,10,17,02,55,10.10
2012,10,17,02,56,10.10
2012,10,17,02,57,10.10
2012,10,17,02,58,10.10
2012,10,17,02,59,10.10
2012,10,17,03,00,10.10
2012,10,17,03,01,10.10
2012,10,17,03,02,10.00
2012,10,17,03,03,9.90
2012,10,17,03,04,9.90
2012,10,17,03,05,9.90
2012,10,17,03,06,9.90
2012,10,17,03,07,9.90
2012,10,17,03,08,9.90
2012,10,17,03,09,9.90
2012,10,17,03,10,9.90
2012,10,17,03,11,9.90
2012,10,17,03,12,9.90
2012,10,17,03,13,9.90
2012,10,17,03,14,9.90
2012,10,17,03,15,9.90
2012,10,17,03,16,9.90
2012,10,17,03,17,9.80
2012,10,17,03,18,9.80
2012,10,17,03,19,9.80
2012,10,17,03,20,9.80
2012,10,17,03,21,9.70
2012,10,17,03,22,9.70
2012,10,17,03,23,9.70
2012,10,17,03,24,9.70
2012,10,17,03,25,9.70
2012,10,17,03,26,9.70
2012,10,17,03,27,9.60
2012,10,17,03,28,9.60
2012,10,17,03,29,9.60
2012,10,17,03,30,9.60
2012,10,17,03,31,9.60
2012,10,17,03,32,9.50
2012,10,17,03,33,9.50
2012,10,17,03,34,9.50
2012,10,17,03,35,9.50
2012,10,17,03,36,9.50
2012,10,17,03,37,9.40
2012,10,17,03,38,9.40
2012,10,17,03,39,9.40
2012,10,17,03,40,9.40
2012,10,17,03,41,9.40
2012,10,17,03,42,9.40
2012,10,17,03,43,9.30
2012,10,17,03,44,9.30
2012,10,17,03,45,9.30
2012,10,17,03,46,9.30
2012,10,17,03,47,9.30
2012,10,17,03,48,9.30
2012,10,17,03,49,9.30
2012,10,17,03,50,9.30
2012,10,17,03,51,9.30
2012,10,17,03,52,9.30
2012,10,17,03,53,9.30
2012,10,17,03,54,9.30
2012,10,17,03,55,9.30
2012,10,17,03,56,9.30
2012,10,17,03,57,9.30
2012,10,17,03,58,9.30
2012,10,17,03,59,9.30
2012,10,17,04,00,9.30
2012,10,17,04,01,9.20
2012,10,17,04,02,9.20
2012,10,17,04,03,9.20
2012,10,17,04,04,9.20
2012,10,17,04,05,9.20
2012,10,17,04,06,9.20
2012,10,17,04,07,9.20
2012,10,17,04,08,9.20
2012,10,17,04,09,9.20
2012,10,17,04,10,9.20
2012,10,17,04,11,9.20
2012,10,17,04,12,9.20
2012,10,17,04,13,9.20
2012,10,17,04,14,9.20
2012,10,17,04,15,9.20
2012,10,17,04,16,9.20
2012,10,17,04,17,9.20
2012,10,17,04,18,9.20
2012,10,17,04,19,9.20
2012,10,17,04,20,9.20
2012,10,17,04,21,9.30
2012,10,17,04,22,9.30
2012,10,17,04,23,9.30
2012,10,17,04,24,9.40
2012,10,17,04,25,9.40
2012,10,17,04,26,9.40
2012,10,17,04,27,9.50
2012,10,17,04,28,9.50
2012,10,17,04,29,9.50
2012,10,17,04,30,9.50
2012,10,17,04,31,9.60
2012,10,17,04,32,9.60
2012,10,17,04,33,9.60
2012,10,17,04,34,9.60
2012,10,17,04,35,9.60
2012,10,17,04,36,9.60
2012,10,17,04,37,9.60
2012,10,17,04,38,9.70
2012,10,17,04,39,9.70
2012,10,17,04,40,9.70
2012,10,17,04,41,9.70
2012,10,17,04,42,9.70
2012,10,17,04,43,9.70
2012,10,17,04,44,9.70
2012,10,17,04,45,9.70
2012,10,17,04,46,9.70
2012,10,17,04,47,9.70
2012,10,17,04,48,9.70
2012,10,17,04,49,9.70
2012,10,17,04,50,9.70
2012,10,17,04,51,9.70
2012,10,17,04,52,9.70
2012,10,17,04,53,9.70
2012,10,17,04,54,9.70
2012,10,17,04,55,9.70
2012,10,17,04,56,9.70
2012,10,17,04,57,9.70
2012,10,17,04,58,9.70
2012,10,17,04,59,9.70
2012,10,17,05,00,9.70
2012,10,17,05,01,9.70
2012,10,17,05,02,9.70
2012,10,17,05,03,9.70
2012,10,17,05,04,9.70
2012,10,17,05,05,9.70
2012,10,17,05,06,9.70
2012,10,17,05,07,9.70
2012,10,17,05,08,9.70
2012,10,17,05,09,9.60
2012,10,17,05,10,9.60
2012,10,17,05,11,9.60
2012,10,17,05,12,9.60
2012,10,17,05,13,9.60
2012,10,17,05,14,9.60
2012,10,17,05,15,9.60
2012,10,17,05,16,9.60
2012,10,17,05,17,9.60
2012,10,17,05,18,9.60
2012,10,17,05,19,9.60
2012,10,17,05,20,9.60
2012,10,17,05,21,9.70
2012,10,17,05,22,9.70
2012,10,17,05,23,9.70
2012,10,17,05,24,9.70
2012,10,17,05,25,9.70
2012,10,17,05,26,9.70
2012,10,17,05,27,9.70
2012,10,17,05,28,9.70
2012,10,17,05,29,9.60
2012,10,17,05,30,9.60
2012,10,17,05,31,9.60
2012,10,17,05,32,9.60
2012,10,17,05,33,9.60
2012,10,17,05,34,9.60
2012,10,17,05,35,9.60
2012,10,17,05,36,9.60
2012,10,17,05,37,9.60
2012,10,17,05,38,9.60
2012,10,17,05,39,9.60
2012,10,17,05,40,9.60
2012,10,17,05,41,9.60
2012,10,17,05,42,9.60
2012,10,17,05,43,9.60
2012,10,17,05,44,9.60
2012,10,17,05,45,9.60
2012,10,17,05,46,9.70
2012,10,17,05,47,9.70
2012,10,17,05,48,9.70
2012,10,17,05,49,9.70
2012,10,17,05,50,9.70
2012,10,17,05,51,9.70
2012,10,17,05,52,9.70
2012,10,17,05,53,9.70
2012,10,17,05,54,9.70
2012,10,17,05,55,9.70
2012,10,17,05,56,9.70
2012,10,17,05,57,9.70
2012,10,17,05,58,9.70
2012,10,17,05,59,9.70
2012,10,17,06,00,9.70
2012,10,17,06,01,9.70
2012,10,17,06,02,9.70
2012,10,17,06,03,9.70
2012,10,17,06,04,9.70
2012,10,17,06,05,9.70
2012,10,17,06,06,9.70
2012,10,17,06,07,9.70
2012,10,17,06,08,9.70
2012,10,17,06,09,9.70
2012,10,17,06,10,9.70
2012,10,17,06,11,9.70
2012,10,17,06,12,9.70
2012,10,17,06,13,9.70
2012,10,17,06,14,9.60
2012,10,17,06,15,9.60
2012,10,17,06,16,9.60
2012,10,17,06,17,9.60
2012,10,17,06,18,9.60
2012,10,17,06,19,9.50
2012,10,17,06,20,9.50
2012,10,17,06,21,9.50
2012,10,17,06,22,9.40
2012,10,17,06,23,9.40
2012,10,17,06,24,9.30
2012,10,17,06,25,9.20
2012,10,17,06,26,9.20
2012,10,17,06,27,9.10
2012,10,17,06,28,9.00
2012,10,17,06,29,8.90
2012,10,17,06,30,8.80
2012,10,17,06,31,8.70
2012,10,17,06,32,8.70
2012,10,17,06,33,8.70
2012,10,17,06,34,8.70
2012,10,17,06,35,8.70
2012,10,17,06,36,8.70
2012,10,17,06,37,8.70
2012,10,17,06,38,8.70
2012,10,17,06,39,8.80
2012,10,17,06,40,8.80
2012,10,17,06,41,8.80
2012,10,17,06,42,8.70
2012,10,17,06,43,8.70
2012,10,17,06,44,8.70
2012,10,17,06,45,8.70
2012,10,17,06,46,8.60
2012,10,17,06,47,8.60
2012,10,17,06,48,8.60
2012,10,17,06,49,8.50
2012,10,17,06,50,8.40
2012,10,17,06,51,8.40
2012,10,17,06,52,8.30
2012,10,17,06,53,8.30
2012,10,17,06,54,8.20
2012,10,17,06,55,8.20
2012,10,17,06,56,8.20
2012,10,17,06,57,8.10
2012,10,17,06,58,8.10
2012,10,17,06,59,8.00
2012,10,17,07,00,8.00
2012,10,17,07,01,7.90
2012,10,17,07,02,7.80
2012,10,17,07,03,7.80
2012,10,17,07,04,7.80
2012,10,17,07,05,7.70
2012,10,17,07,06,7.70
2012,10,17,07,07,7.70
2012,10,17,07,08,7.60
2012,10,17,07,09,7.60
2012,10,17,07,10,7.60
2012,10,17,07,11,7.50
2012,10,17,07,12,7.50
2012,10,17,07,13,7.50
2012,10,17,07,14,7.50
2012,10,17,07,15,7.50
2012,10,17,07,16,7.50
2012,10,17,07,17,7.50
2012,10,17,07,18,7.50
2012,10,17,07,19,7.40
2012,10,17,07,20,7.40
2012,10,17,07,21,7.40
2012,10,17,07,22,7.40
2012,10,17,07,23,7.40
2012,10,17,07,24,7.40
2012,10,17,07,25,7.40
2012,10,17,07,26,7.30
2012,10,17,07,27,7.30
2012,10,17,07,28,7.30
2012,10,17,07,29,7.30
2012,10,17,07,30,7.30
2012,10,17,07,31,7.30
2012,10,17,07,32,7.30
2012,10,17,07,33,7.30
2012,10,17,07,34,7.20
2012,10,17,07,35,7.20
2012,10,17,07,36,7.20
2012,10,17,07,37,7.20
2012,10,17,07,38,7.20
2012,10,17,07,39,7.20
2012,10,17,07,40,7.20
2012,10,17,07,41,7.20
2012,10,17,07,42,7.20
2012,10,17,07,43,7.20
2012,10,17,07,44,7.20
2012,10,17,07,45,7.20
2012,10,17,07,46,7.20
2012,10,17,07,47,7.20
2012,10,17,07,48,7.10
2012,10,17,07,49,7.10
2012,10,17,07,50,7.10
2012,10,17,07,51,7.10
2012,10,17,07,52,7.00
2012,10,17,07,53,7.00
2012,10,17,07,54,7.00
2012,10,17,07,55,7.00
2012,10,17,07,56,7.00
2012,10,17,07,57,7.00
2012,10,17,07,58,7.00
2012,10,17,07,59,6.90
2012,10,17,08,00,6.90
2012,10,17,08,01,6.90
2012,10,17,08,02,6.90
2012,10,17,08,03,6.90
2012,10,17,08,04,6.90
2012,10,17,08,05,6.90
2012,10,17,08,06,6.80
2012,10,17,08,07,6.80
2012,10,17,08,08,6.80
2012,10,17,08,09,6.80
2012,10,17,08,10,6.80
2012,10,17,08,11,6.80
2012,10,17,08,12,6.80
2012,10,17,08,13,6.80
2012,10,17,08,14,6.80
2012,10,17,08,15,6.80
2012,10,17,08,16,6.80
2012,10,17,08,17,6.80
2012,10,17,08,18,6.80
2012,10,17,08,19,6.80
2012,10,17,08,20,6.80
2012,10,17,08,21,6.80
2012,10,17,08,22,6.80
2012,10,17,08,23,6.80
2012,10,17,08,24,6.80
2012,10,17,08,25,6.90
2012,10,17,08,26,6.90
2012,10,17,08,27,6.90
2012,10,17,08,28,6.90
2012,10,17,08,29,7.00
2012,10,17,08,30,7.00
2012,10,17,08,31,7.00
2012,10,17,08,32,7.00
2012,10,17,08,33,7.10
2012,10,17,08,34,7.10
2012,10,17,08,35,7.10
2012,10,17,08,36,7.10
2012,10,17,08,37,7.10
2012,10,17,08,38,7.20
2012,10,17,08,39,7.20
2012,10,17,08,40,7.20
2012,10,17,08,41,7.20
2012,10,17,08,42,7.20
2012,10,17,08,43,7.20
2012,10,17,08,44,7.20
2012,10,17,08,45,7.30
2012,10,17,08,46,7.30
2012,10,17,08,47,7.30
2012,10,17,08,48,7.20
2012,10,17,08,49,7.20
2012,10,17,08,50,7.20
2012,10,17,08,51,7.20
2012,10,17,08,52,7.20
2012,10,17,08,53,7.20
2012,10,17,08,54,7.20
2012,10,17,08,55,7.30
2012,10,17,08,56,7.30
2012,10,17,08,57,7.30
2012,10,17,08,58,7.30
2012,10,17,08,59,7.30
2012,10,17,09,00,7.30
2012,10,17,09,01,7.30
2012,10,17,09,02,7.40
2012,10,17,09,03,7.40
2012,10,17,09,04,7.40
2012,10,17,09,05,7.40
2012,10,17,09,06,7.50
2012,10,17,09,07,7.50
2012,10,17,09,08,7.50
2012,10,17,09,09,7.50
2012,10,17,09,10,7.50
2012,10,17,09,11,7.60
2012,10,17,09,12,7.60
2012,10,17,09,13,7.60
2012,10,17,09,14,7.60
2012,10,17,09,15,7.60
2012,10,17,09,16,7.70
2012,10,17,09,17,7.70
2012,10,17,09,18,7.70
2012,10,17,09,19,7.80
2012,10,17,09,20,7.80
2012,10,17,09,21,7.80
2012,10,17,09,22,7.80
2012,10,17,09,23,7.80
2012,10,17,09,24,7.80
2012,10,17,09,25,7.80
2012,10,17,09,26,7.80
2012,10,17,09,27,7.90
2012,10,17,09,28,7.90
2012,10,17,09,29,7.90
2012,10,17,09,30,7.90
2012,10,17,09,31,7.90
2012,10,17,09,32,7.90
2012,10,17,09,33,7.90
2012,10,17,09,34,8.00
2012,10,17,09,35,8.00
2012,10,17,09,36,8.00
2012,10,17,09,37,8.10
2012,10,17,09,38,8.10
2012,10,17,09,39,8.10
2012,10,17,09,40,8.20
2012,10,17,09,41,8.20
2012,10,17,09,42,8.20
2012,10,17,09,43,8.20
2012,10,17,09,44,8.20
2012,10,17,09,45,8.20
2012,10,17,09,46,8.30
2012,10,17,09,47,8.30
2012,10,17,09,48,8.30
2012,10,17,09,49,8.30
2012,10,17,09,50,8.30
2012,10,17,09,51,8.40
2012,10,17,09,52,8.40
2012,10,17,09,53,8.40
2012,10,17,09,54,8.50
2012,10,17,09,55,8.50
2012,10,17,09,56,8.50
2012,10,17,09,57,8.60
2012,10,17,09,58,8.60
2012,10,17,09,59,8.60
2012,10,17,10,00,8.70
2012,10,17,10,01,8.70
2012,10,17,10,02,8.70
2012,10,17,10,03,8.70
2012,10,17,10,04,8.70
2012,10,17,10,05,8.80
2012,10,17,10,06,8.80
2012,10,17,10,07,8.90
2012,10,17,10,08,8.90
2012,10,17,10,09,8.90
2012,10,17,10,10,9.00
2012,10,17,10,11,9.00
2012,10,17,10,12,9.10
2012,10,17,10,13,9.20
2012,10,17,10,14,9.20
2012,10,17,10,15,9.20
2012,10,17,10,16,9.20
2012,10,17,10,17,9.30
2012,10,17,10,18,9.30
2012,10,17,10,19,9.30
2012,10,17,10,20,9.30
2012,10,17,10,21,9.30
2012,10,17,10,22,9.30
2012,10,17,10,23,9.30
2012,10,17,10,24,9.40
2012,10,17,10,25,9.40
2012,10,17,10,26,9.40
2012,10,17,10,27,9.40
2012,10,17,10,28,9.40
2012,10,17,10,29,9.50
2012,10,17,10,30,9.50
2012,10,17,10,31,9.50
2012,10,17,10,32,9.50
2012,10,17,10,33,9.50
2012,10,17,10,34,9.60
2012,10,17,10,35,9.60
2012,10,17,10,36,9.70
2012,10,17,10,37,9.70
2012,10,17,10,38,9.70
2012,10,17,10,39,9.70
2012,10,17,10,40,9.70
2012,10,17,10,41,9.70
2012,10,17,10,42,9.80
2012,10,17,10,43,9.80
2012,10,17,10,44,9.80
2012,10,17,10,45,9.80
2012,10,17,10,46,9.80
2012,10,17,10,47,9.80
2012,10,17,10,48,9.80
2012,10,17,10,49,9.80
2012,10,17,10,50,9.80
2012,10,17,10,51,9.80
2012,10,17,10,52,9.80
2012,10,17,10,53,9.80
2012,10,17,10,54,9.80
2012,10,17,10,55,9.90
2012,10,17,10,56,9.90
2012,10,17,10,57,9.90
2012,10,17,10,58,10.00
2012,10,17,10,59,10.10
2012,10,17,11,00,10.10
2012,10,17,11,01,10.20
2012,10,17,11,02,10.20
2012,10,17,11,03,10.30
2012,10,17,11,04,10.40
2012,10,17,11,05,10.40
2012,10,17,11,06,10.40
2012,10,17,11,07,10.40
2012,10,17,11,08,10.60
2012,10,17,11,09,10.60
2012,10,17,11,10,10.60
2012,10,17,11,11,10.60
2012,10,17,11,12,10.70
2012,10,17,11,13,10.70
2012,10,17,11,14,10.70
2012,10,17,11,15,10.80
2012,10,17,11,16,10.80
2012,10,17,11,17,10.80
2012,10,17,11,18,10.80
2012,10,17,11,19,10.80
2012,10,17,11,20,10.90
2012,10,17,11,21,10.90
2012,10,17,11,22,10.90
2012,10,17,11,23,10.90
2012,10,17,11,24,10.90
2012,10,17,11,25,10.90
2012,10,17,11,26,10.90
2012,10,17,11,27,10.90
2012,10,17,11,28,11.00
2012,10,17,11,29,11.10
2012,10,17,11,30,11.10
2012,10,17,11,31,11.10
2012,10,17,11,32,11.10
2012,10,17,11,33,11.10
2012,10,17,11,34,11.20
2012,10,17,11,35,11.20
2012,10,17,11,36,11.20
2012,10,17,11,37,11.20
2012,10,17,11,38,11.20
2012,10,17,11,39,11.20
2012,10,17,11,40,11.30
2012,10,17,11,41,11.30
2012,10,17,11,42,11.30
2012,10,17,11,43,11.40
2012,10,17,11,44,11.40
2012,10,17,11,45,11.40
2012,10,17,11,46,11.40
2012,10,17,11,47,11.40
2012,10,17,11,48,11.50
2012,10,17,11,49,11.60
2012,10,17,11,50,11.60
2012,10,17,11,51,11.60
2012,10,17,11,52,11.60
2012,10,17,11,53,11.60
2012,10,17,11,54,11.60
2012,10,17,11,55,11.60
2012,10,17,11,56,11.60
2012,10,17,11,57,11.70
2012,10,17,11,58,11.70
2012,10,17,11,59,11.70
2012,10,17,12,00,11.70
2012,10,17,12,01,11.80
2012,10,17,12,02,11.80
2012,10,17,12,03,11.80
2012,10,17,12,04,11.80
2012,10,17,12,05,11.80
2012,10,17,12,06,11.80
2012,10,17,12,07,11.90
2012,10,17,12,08,11.90
2012,10,17,12,09,11.90
2012,10,17,12,10,11.90
2012,10,17,12,11,11.90
2012,10,17,12,12,12.00
2012,10,17,12,13,12.00
2012,10,17,12,14,12.00
2012,10,17,12,15,12.00
2012,10,17,12,16,11.90
2012,10,17,12,17,11.90
2012,10,17,12,18,11.90
2012,10,17,12,19,11.80
2012,10,17,12,20,11.80
2012,10,17,12,21,11.70
2012,10,17,12,22,11.70
2012,10,17,12,23,11.60
2012,10,17,12,24,11.60
2012,10,17,12,25,11.70
2012,10,17,12,26,11.70
2012,10,17,12,27,11.80
2012,10,17,12,28,11.80
2012,10,17,12,29,11.80
2012,10,17,12,30,11.90
2012,10,17,12,31,11.80
2012,10,17,12,32,11.80
2012,10,17,12,33,11.90
2012,10,17,12,34,11.90
2012,10,17,12,35,11.90
2012,10,17,12,36,12.00
2012,10,17,12,37,12.00
2012,10,17,12,38,11.90
2012,10,17,12,39,11.90
2012,10,17,12,40,11.90
2012,10,17,12,41,11.90
2012,10,17,12,42,12.00
2012,10,17,12,43,12.00
2012,10,17,12,44,12.00
2012,10,17,12,45,12.00
2012,10,17,12,46,12.00
2012,10,17,12,47,12.00
2012,10,17,12,48,11.90
2012,10,17,12,49,11.80
2012,10,17,12,50,11.80
2012,10,17,12,51,11.90
2012,10,17,12,52,11.90
2012,10,17,12,53,11.90
2012,10,17,12,54,12.00
2012,10,17,12,55,12.00
2012,10,17,12,56,12.00
2012,10,17,12,57,12.00
2012,10,17,12,58,12.00
2012,10,17,12,59,12.00
2012,10,17,13,00,12.00
2012,10,17,13,01,12.00
2012,10,17,13,02,12.00
2012,10,17,13,03,12.00
2012,10,17,13,04,11.90
2012,10,17,13,05,11.90
2012,10,17,13,06,11.90
2012,10,17,13,07,11.90
2012,10,17,13,08,11.90
2012,10,17,13,09,11.90
2012,10,17,13,10,11.90
2012,10,17,13,11,11.90
2012,10,17,13,12,11.80
2012,10,17,13,13,11.80
2012,10,17,13,14,11.80
2012,10,17,13,15,11.80
2012,10,17,13,16,11.80
2012,10,17,13,17,11.80
2012,10,17,13,18,11.80
2012,10,17,13,19,11.80
2012,10,17,13,20,11.80
2012,10,17,13,21,11.80
2012,10,17,13,22,11.80
2012,10,17,13,23,11.80
2012,10,17,13,24,11.90
2012,10,17,13,25,11.90
2012,10,17,13,26,11.90
2012,10,17,13,27,11.90
2012,10,17,13,28,12.00
2012,10,17,13,29,12.00
2012,10,17,13,30,12.10
2012,10,17,13,31,12.20
2012,10,17,13,32,12.30
2012,10,17,13,33,12.30
2012,10,17,13,34,12.30
2012,10,17,13,35,12.30
2012,10,17,13,36,12.30
2012,10,17,13,37,12.30
2012,10,17,13,38,12.30
2012,10,17,13,39,12.30
2012,10,17,13,40,12.30
2012,10,17,13,41,12.40
2012,10,17,13,42,12.50
2012,10,17,13,43,12.50
2012,10,17,13,44,12.60
2012,10,17,13,45,12.60
2012,10,17,13,46,12.70
2012,10,17,13,47,12.70
2012,10,17,13,48,12.60
2012,10,17,13,49,12.60
2012,10,17,13,50,12.60
2012,10,17,13,51,12.60
2012,10,17,13,52,12.60
2012,10,17,13,53,12.60
2012,10,17,13,54,12.60
2012,10,17,13,55,12.50
2012,10,17,13,56,12.50
2012,10,17,13,57,12.50
2012,10,17,13,58,12.60
2012,10,17,13,59,12.70
2012,10,17,14,00,12.80
2012,10,17,14,01,12.80
2012,10,17,14,02,12.80
2012,10,17,14,03,12.80
2012,10,17,14,04,12.80
2012,10,17,14,05,12.80
2012,10,17,14,06,12.80
2012,10,17,14,07,12.80
2012,10,17,14,08,12.80
2012,10,17,14,09,12.80
2012,10,17,14,10,12.80
2012,10,17,14,11,12.90
2012,10,17,14,12,12.90
2012,10,17,14,13,13.00
2012,10,17,14,14,13.00
2012,10,17,14,15,13.10
2012,10,17,14,16,13.10
2012,10,17,14,17,13.10
2012,10,17,14,18,13.10
2012,10,17,14,19,13.10
2012,10,17,14,20,13.10
2012,10,17,14,21,13.10
2012,10,17,14,22,13.20
2012,10,17,14,23,13.20
2012,10,17,14,24,13.20
2012,10,17,14,25,13.20
2012,10,17,14,26,13.20
2012,10,17,14,27,13.20
2012,10,17,14,28,13.10
2012,10,17,14,29,13.10
2012,10,17,14,30,13.10
2012,10,17,14,31,13.10
2012,10,17,14,32,13.10
2012,10,17,14,33,13.10
2012,10,17,14,34,13.10
2012,10,17,14,35,13.10
2012,10,17,14,36,13.10
2012,10,17,14,37,13.10
2012,10,17,14,38,13.10
2012,10,17,14,39,13.20
2012,10,17,14,40,13.20
2012,10,17,14,41,13.20
2012,10,17,14,42,13.10
2012,10,17,14,43,13.00
2012,10,17,14,44,13.00
2012,10,17,14,45,12.90
2012,10,17,14,46,12.80
2012,10,17,14,47,12.80
2012,10,17,14,48,12.80
2012,10,17,14,49,12.70
2012,10,17,14,50,12.70
2012,10,17,14,51,12.70
2012,10,17,14,52,12.70
2012,10,17,14,53,12.70
2012,10,17,14,54,12.80
2012,10,17,14,55,12.80
2012,10,17,14,56,12.80
2012,10,17,14,57,12.80
2012,10,17,14,58,12.80
2012,10,17,14,59,12.80
2012,10,17,15,00,12.80
2012,10,17,15,01,12.90
2012,10,17,15,02,12.90
2012,10,17,15,03,13.00
2012,10,17,15,04,13.00
2012,10,17,15,05,12.90
2012,10,17,15,06,12.90
2012,10,17,15,07,12.80
2012,10,17,15,08,12.80
2012,10,17,15,09,12.80
2012,10,17,15,10,12.80
2012,10,17,15,11,12.80
2012,10,17,15,12,12.80
2012,10,17,15,13,12.80
2012,10,17,15,14,12.70
2012,10,17,15,15,12.70
2012,10,17,15,16,12.70
2012,10,17,15,17,12.60
2012,10,17,15,18,12.60
2012,10,17,15,19,12.60
2012,10,17,15,20,12.50
2012,10,17,15,21,12.50
2012,10,17,15,22,12.50
2012,10,17,15,23,12.50
2012,10,17,15,24,12.50
2012,10,17,15,25,12.50
2012,10,17,15,26,12.50
2012,10,17,15,27,12.60
2012,10,17,15,28,12.60
2012,10,17,15,29,12.60
2012,10,17,15,30,12.60
2012,10,17,15,31,12.60
2012,10,17,15,32,12.60
2012,10,17,15,33,12.60
2012,10,17,15,34,12.60
2012,10,17,15,35,12.60
2012,10,17,15,36,12.60
2012,10,17,15,37,12.50
2012,10,17,15,38,12.50
2012,10,17,15,39,12.40
2012,10,17,15,40,12.40
2012,10,17,15,41,12.40
2012,10,17,15,42,12.30
2012,10,17,15,43,12.30
2012,10,17,15,44,12.30
2012,10,17,15,45,12.30
2012,10,17,15,46,12.30
2012,10,17,15,47,12.30
2012,10,17,15,48,12.30
2012,10,17,15,49,12.30
2012,10,17,15,50,12.30
2012,10,17,15,51,12.30
2012,10,17,15,52,12.30
2012,10,17,15,53,12.30
2012,10,17,15,54,12.30
2012,10,17,15,55,12.40
2012,10,17,15,56,12.40
2012,10,17,15,57,12.40
2012,10,17,15,58,12.40
2012,10,17,15,59,12.50
2012,10,17,16,00,12.50
2012,10,17,16,01,12.50
2012,10,17,16,02,12.50
2012,10,17,16,03,12.50
2012,10,17,16,04,12.50
2012,10,17,16,05,12.40
2012,10,17,16,06,12.40
2012,10,17,16,07,12.40
2012,10,17,16,08,12.30
2012,10,17,16,09,12.40
2012,10,17,16,10,12.40
2012,10,17,16,11,12.30
2012,10,17,16,12,12.30
2012,10,17,16,13,12.30
2012,10,17,16,14,12.30
2012,10,17,16,15,12.30
2012,10,17,16,16,12.30
2012,10,17,16,17,12.30
2012,10,17,16,18,12.30
2012,10,17,16,19,12.30
2012,10,17,16,20,12.20
2012,10,17,16,21,12.20
2012,10,17,16,22,12.20
2012,10,17,16,23,12.20
2012,10,17,16,24,12.20
2012,10,17,16,25,12.20
2012,10,17,16,26,12.30
2012,10,17,16,27,12.30
2012,10,17,16,28,12.30
2012,10,17,16,29,12.30
2012,10,17,16,30,12.30
2012,10,17,16,31,12.30
2012,10,17,16,32,12.30
2012,10,17,16,33,12.30
2012,10,17,16,34,12.30
2012,10,17,16,35,12.40
2012,10,17,16,36,12.40
2012,10,17,16,37,12.40
2012,10,17,16,38,12.40
2012,10,17,16,39,12.40
2012,10,17,16,40,12.40
2012,10,17,16,41,12.50
2012,10,17,16,42,12.50
2012,10,17,16,43,12.50
2012,10,17,16,44,12.40
2012,10,17,16,45,12.40
2012,10,17,16,46,12.40
2012,10,17,16,47,12.40
2012,10,17,16,48,12.40
2012,10,17,16,49,12.30
2012,10,17,16,50,12.30
2012,10,17,16,51,12.30
2012,10,17,16,52,12.30
2012,10,17,16,53,12.30
2012,10,17,16,54,12.30
2012,10,17,16,55,12.30
2012,10,17,16,56,12.30
2012,10,17,16,57,12.30
2012,10,17,16,58,12.30
2012,10,17,16,59,12.30
2012,10,17,17,00,12.30
2012,10,17,17,01,12.30
2012,10,17,17,02,12.30
2012,10,17,17,03,12.30
2012,10,17,17,04,12.30
2012,10,17,17,05,12.30
2012,10,17,17,06,12.30
2012,10,17,17,07,12.30
2012,10,17,17,08,12.30
2012,10,17,17,09,12.30
2012,10,17,17,10,12.30
2012,10,17,17,11,12.30
2012,10,17,17,12,12.30
2012,10,17,17,13,12.20
2012,10,17,17,14,12.20
2012,10,17,17,15,12.20
2012,10,17,17,16,12.10
2012,10,17,17,17,12.10
2012,10,17,17,18,12.10
2012,10,17,17,19,12.10
2012,10,17,17,20,12.10
2012,10,17,17,21,12.00
2012,10,17,17,22,12.00
2012,10,17,17,23,12.00
2012,10,17,17,24,12.00
2012,10,17,17,25,11.90
2012,10,17,17,26,11.90
2012,10,17,17,27,11.90
2012,10,17,17,28,11.80
2012,10,17,17,29,11.80
2012,10,17,17,30,11.80
2012,10,17,17,31,11.80
2012,10,17,17,32,11.80
2012,10,17,17,33,11.80
2012,10,17,17,34,11.70
2012,10,17,17,35,11.70
2012,10,17,17,36,11.70
2012,10,17,17,37,11.70
2012,10,17,17,38,11.70
2012,10,17,17,39,11.70
2012,10,17,17,40,11.70
2012,10,17,17,41,11.70
2012,10,17,17,42,11.70
2012,10,17,17,43,11.60
2012,10,17,17,44,11.60
2012,10,17,17,45,11.60
2012,10,17,17,46,11.60
2012,10,17,17,47,11.60
2012,10,17,17,48,11.60
2012,10,17,17,49,11.60
2012,10,17,17,50,11.60
2012,10,17,17,51,11.60
2012,10,17,17,52,11.60
2012,10,17,17,53,11.60
2012,10,17,17,54,11.60
2012,10,17,17,55,11.60
2012,10,17,17,56,11.60
2012,10,17,17,57,11.60
2012,10,17,17,58,11.60
2012,10,17,17,59,11.60
2012,10,17,18,00,11.60
2012,10,17,18,01,11.60
2012,10,17,18,02,11.60
2012,10,17,18,03,11.60
2012,10,17,18,04,11.60
2012,10,17,18,05,11.60
2012,10,17,18,06,11.60
2012,10,17,18,07,11.60
2012,10,17,18,08,11.60
2012,10,17,18,09,11.60
2012,10,17,18,10,11.60
2012,10,17,18,11,11.60
2012,10,17,18,12,11.60
2012,10,17,18,13,11.60
2012,10,17,18,14,11.60
2012,10,17,18,15,11.60
2012,10,17,18,16,11.60
2012,10,17,18,17,11.60
2012,10,17,18,18,11.60
2012,10,17,18,19,11.60
2012,10,17,18,20,11.60
2012,10,17,18,21,11.60
2012,10,17,18,22,11.60
2012,10,17,18,23,11.60
2012,10,17,18,24,11.60
2012,10,17,18,25,11.60
2012,10,17,18,26,11.60
2012,10,17,18,27,11.60
2012,10,17,18,28,11.60
2012,10,17,18,29,11.60
2012,10,17,18,30,11.60
2012,10,17,18,31,11.60
2012,10,17,18,32,11.60
2012,10,17,18,33,11.60
2012,10,17,18,34,11.60
2012,10,17,18,35,11.60
2012,10,17,18,36,11.60
2012,10,17,18,37,11.60
2012,10,17,18,38,11.60
2012,10,17,18,39,11.50
2012,10,17,18,40,11.40
2012,10,17,18,41,11.40
2012,10,17,18,42,11.40
2012,10,17,18,43,11.40
2012,10,17,18,44,11.40
2012,10,17,18,45,11.40
2012,10,17,18,46,11.40
2012,10,17,18,47,11.40
2012,10,17,18,48,11.40
2012,10,17,18,49,11.40
2012,10,17,18,50,11.40
2012,10,17,18,51,11.40
2012,10,17,18,52,11.40
2012,10,17,18,53,11.40
2012,10,17,18,54,11.40
2012,10,17,18,55,11.40
2012,10,17,18,56,11.40
2012,10,17,18,57,11.40
2012,10,17,18,58,11.40
2012,10,17,18,59,11.40
2012,10,17,19,00,11.40
2012,10,17,19,01,11.30
2012,10,17,19,02,11.30
2012,10,17,19,03,11.30
2012,10,17,19,04,11.30
2012,10,17,19,05,11.30
2012,10,17,19,06,11.30
2012,10,17,19,07,11.30
2012,10,17,19,08,11.20